RH
20 18 17 16 18 19 18 18 16 14 15 16 16 16 15 16 18 18 26 37 39 35 35 47 66 68 60 61 57 49 54 60 58 60 63 63 64 67 70 70 70 77 80 80 84 86 85 87 88 86 84 82 82 82 80 77 74 72 69 64 60 54 51 55 62 64 63 58 55 57 60 61 63 68 71 72 70 65 58 50 42 36 33 31 29 28 28
19 18 17 16 17 18 19 19 16 16 16 16 17 16 15 18 18 17 22 26 27 30 31 40 63 65 49 48 49 47 56 61 59 61 61 61 72 82 82 75 71 76 80 82 86 85 81 81 83 81 81 79 77 79 81 79 77 75 68 61 58 54 53 58 61 62 62 59 58 61 60 57 60 69 75 75 71 63 54 46 41 37 34 32 31 30 30
23 21 19 17 18 18 17 17 17 18 18 17 16 15 16 19 19 18 20 20 20 29 39 49 57 49 35 38 44 44 49 53 52 55 54 57 68 76 73 69 68 71 76 82 83 79 77 78 79 79 82 82 78 78 78 75 73 71 63 56 54 54 56 57 56 55 55 57 60 60 57 55 60 70 77 74 66 57 49 43 39 37 35 33 32 33 34
25 24 21 17 18 20 19 18 19 18 18 19 17 15 17 18 19 20 20 20 25 36 47 55 57 49 39 38 36 30 31 36 40 45 47 48 50 49 53 70 83 83 81 84 81 77 78 83 85 85 87 86 81 79 75 71 70 66 59 56 58 59 58 56 53 52 53 59 63 61 58 59 65 73 74 67 58 50 44 42 39 37 35 35 35 35 33
25 25 24 19 18 21 21 19 20 19 19 20 18 17 18 16 20 22 20 24 36 43 43 44 49 50 41 33 27 21 18 22 25 30 34 36 41 41 45 70 96 97 88 87 86 85 87 91 91 89 88 84 78 76 74 72 75 71 63 62 64 62 59 56 54 54 58 65 67 64 63 66 69 70 65 57 51 46 43 41 39 37 38 36 34 30 23
29 26 26 25 24 26 25 23 21 19 19 19 18 19 18 16 21 22 20 29 39 42 41 38 38 43 43 40 38 29 19 18 20 22 26 33 41 42 43 64 88 89 81 81 84 87 89 91 91 92 90 81 71 72 75 74 74 73 69 67 64 61 59 57 57 59 65 71 71 67 67 68 65 62 56 51 48 45 42 41 39 38 36 30 25 18 11
30 27 28 35 37 35 34 31 27 24 22 19 19 21 20 19 23 23 23 29 32 34 44 49 47 51 55 51 43 31 19 16 17 17 23 32 37 37 49 76 90 81 72 75 80 84 88 94 96 93 87 78 70 71 73 71 70 70 68 65 63 60 59 59 61 68 73 75 72 69 67 64 60 56 52 49 46 44 43 41 37 32 26 19 13 7 4
29 29 33 42 45 45 42 36 32 30 28 25 22 22 22 21 24 26 24 29 37 39 46 63 66 59 54 48 36 26 19 15 14 14 20 32 40 45 61 84 90 81 78 83 84 83 85 92 93 84 75 71 68 68 68 67 68 68 65 65 64 62 63 67 72 78 79 76 72 68 64 60 57 54 50 47 45 43 40 34 27 20 14 9 5 2 1
27 29 33 38 44 50 46 38 35 32 29 31 28 23 25 23 23 28 23 27 46 45 40 60 69 54 45 41 30 22 18 14 13 16 28 49 64 68 75 86 91 91 90 90 90 88 88 90 85 73 68 69 67 67 68 68 71 72 73 74 72 70 72 77 81 82 79 74 70 66 62 59 55 51 48 45 42 36 29 23 17 11 6 3 2 1 1
27 30 34 35 41 50 48 46 50 40 28 32 32 29 32 26 21 27 23 26 51 53 38 45 55 48 44 39 25 18 15 12 13 20 39 67 81 80 82 89 93 91 87 87 93 95 96 96 87 77 75 75 73 73 75 76 77 79 79 79 78 78 79 82 82 80 76 72 68 64 60 55 51 47 43 38 32 25 19 14 9 5 2 1 1 1 1
27 30 34 33 37 47 51 54 57 43 29 33 36 35 36 29 23 26 22 27 53 59 42 38 41 41 41 31 19 17 16 14 17 25 45 73 85 85 86 86 85 86 88 94 99 95 92 93 89 84 82 81 80 82 82 81 80 77 76 76 77 79 81 81 79 76 73 69 65 60 55 49 45 40 34 27 22 17 12 7 4 2 1 1 1 1 1
29 29 31 34 42 54 58 57 56 48 38 39 41 39 37 31 28 28 23 29 46 48 39 39 38 36 37 31 20 19 21 21 22 31 50 69 81 90 95 89 88 94 98 99 95 87 84 87 88 88 88 86 86 86 81 77 72 69 70 72 74 78 80 79 77 74 71 66 59 53 48 44 41 39 36 32 27 18 8 4 2 1 1 1 1 2 2
33 32 33 38 48 55 53 51 58 60 53 46 44 43 38 32 30 32 30 33 42 44 41 40 37 37 45 48 38 27 25 24 25 37 57 72 84 94 96 93 96 101 100 97 93 87 86 90 91 91 89 86 84 80 73 68 66 67 71 74 77 79 79 77 76 72 64 57 53 51 53 56 59 60 56 45 31 16 5 2 1 1 2 2 2 2 2
33 34 36 39 47 51 44 43 54 63 61 56 51 47 43 36 32 33 34 35 43 48 43 41 47 51 49 47 41 32 27 27 29 43 64 79 86 88 89 95 100 99 96 96 95 93 92 93 92 88 85 82 78 73 69 68 69 73 78 80 80 80 78 75 70 63 57 56 61 67 73 75 70 59 44 26 12 5 1 1 2 2 2 2 2 2 3
34 34 35 38 46 50 49 51 56 59 63 66 62 55 48 40 34 33 32 34 44 49 45 52 70 68 45 33 31 27 25 28 36 53 70 74 69 70 83 97 98 94 94 96 95 97 97 94 91 87 83 79 73 69 70 72 75 80 84 84 81 78 74 69 63 62 66 72 76 76 68 56 40 25 13 5 2 2 2 2 2 2 2 3 3 3 3
34 34 37 44 51 49 48 54 59 56 58 64 64 58 49 40 37 36 34 36 44 49 52 67 81 66 38 29 29 23 20 25 38 60 70 63 61 74 90 98 95 92 95 97 97 99 99 94 91 85 78 71 66 67 73 76 78 83 85 83 80 76 73 70 71 75 77 72 63 49 33 20 11 6 3 2 2 2 2 2 2 3 3 3 3 3 3
45 49 52 56 57 48 41 47 53 53 54 59 61 56 49 44 42 41 41 46 56 64 72 85 87 65 38 29 28 24 22 25 37 58 66 64 73 91 98 99 97 96 98 100 99 98 96 93 87 76 68 65 66 71 75 75 77 82 83 81 81 80 78 78 76 69 58 44 30 18 9 6 4 3 2 2 2 2 3 3 3 3 3 3 3 4 4
52 57 62 59 52 43 40 46 52 51 50 55 56 52 49 50 52 51 51 58 70 81 88 88 79 59 39 31 29 28 27 28 37 55 69 78 91 100 99 99 100 99 100 101 99 98 95 87 75 66 63 65 69 72 74 74 77 80 81 81 79 76 73 68 58 46 33 22 14 8 5 4 2 2 2 2 2 2 2 3 3 3 3 3 3 4 4
53 57 63 59 50 43 38 39 45 47 45 47 49 47 46 50 55 57 60 63 66 73 81 78 63 49 40 37 35 32 28 30 37 53 74 91 99 100 99 99 100 100 100 99 98 97 90 76 66 65 65 65 67 68 70 74 78 77 76 73 68 63 58 50 40 29 20 12 7 5 4 3 2 2 2 2 2 3 3 3 4 3 3 4 4 4 5
53 59 63 62 65 68 58 45 41 43 43 42 42 43 43 45 50 55 62 71 73 76 84 80 62 50 48 42 37 34 31 30 36 55 82 98 100 99 101 99 99 100 100 99 98 92 79 68 64 66 67 67 68 69 71 74 74 69 66 61 57 53 47 37 27 18 10 6 5 4 2 2 2 2 3 3 3 4 3 3 4 3 4 4 4 5 5
63 68 68 63 66 73 72 59 46 40 40 41 41 41 40 42 45 46 53 68 76 79 87 83 63 51 49 39 32 35 35 30 36 61 89 100 99 99 101 99 100 101 99 98 96 84 71 67 67 68 71 74 74 73 72 70 66 61 58 57 54 49 39 26 16 10 5 4 3 2 2 2 3 3 3 3 3 3 4 4 4 4 4 5 5 6 6
73 73 70 62 59 61 63 58 49 41 40 41 42 44 44 42 44 45 50 63 69 67 75 79 63 48 44 38 33 36 35 30 37 59 82 93 97 100 101 98 100 101 99 98 93 78 68 68 70 72 76 76 74 71 68 63 61 59 58 57 52 41 27 16 9 6 4 3 2 2 3 3 3 3 3 3 4 4 4 4 4 4 5 5 6 6 6
74 73 70 63 60 60 56 51 45 42 41 44 54 64 61 49 44 42 43 54 62 59 66 75 63 42 36 33 31 32 33 31 40 59 75 85 92 98 101 101 100 100 100 99 90 77 71 73 75 76 77 74 70 67 64 62 61 60 58 54 43 27 15 9 6 4 4 3 2 2 3 3 3 4 4 4 4 4 4 5 5 5 6 6 6 7 7
67 69 66 61 59 61 59 55 51 46 45 52 67 77 67 50 43 40 35 42 51 51 57 69 61 40 33 33 30 29 29 29 38 57 74 82 85 87 92 99 101 100 101 99 89 78 75 78 78 77 75 71 67 65 63 64 64 61 56 45 29 15 9 7 5 3 3 2 2 3 3 3 4 4 4 4 4 4 5 5 5 6 6 6 7 7 8
56 60 63 63 61 61 59 56 53 50 49 53 58 59 52 42 40 41 39 42 46 44 50 63 58 40 34 36 34 32 31 32 41 60 77 87 89 86 90 98 102 100 100 98 87 78 78 81 81 78 73 69 66 66 67 67 65 60 51 35 18 10 7 5 4 3 2 2 3 3 3 4 4 4 5 5 5 5 5 6 6 7 7 7 8 8 9
58 60 63 67 68 67 63 61 58 52 48 47 46 44 43 42 41 43 45 48 49 50 55 61 56 43 38 38 37 35 34 38 51 69 85 96 99 97 98 101 100 98 99 95 86 81 82 83 80 76 71 68 68 70 70 68 66 59 44 25 12 8 6 3 3 3 2 3 4 3 4 4 4 4 5 5 5 6 6 6 7 7 8 9 9 10 11
69 67 65 65 69 72 70 66 61 52 45 45 46 44 43 43 43 45 50 54 56 57 57 56 52 47 43 42 41 39 41 53 71 87 96 100 100 98 98 99 100 99 96 90 84 82 83 82 78 74 71 71 72 73 71 69 65 53 33 15 7 6 5 4 3 2 3 3 4 3 4 4 4 5 5 5 6 7 7 7 8 9 9 10 11 11 12
83 84 81 76 76 76 69 59 53 49 46 46 47 46 44 42 42 44 53 62 63 58 53 51 49 47 48 49 47 48 59 79 94 99 98 97 96 92 89 92 99 100 93 85 84 83 81 79 77 74 72 74 75 74 72 68 58 39 19 8 6 5 4 3 2 3 4 4 3 4 4 5 5 5 6 6 6 7 8 9 9 10 11 12 12 13 13
85 87 90 91 88 84 76 63 53 51 51 49 47 46 45 43 43 43 51 63 67 61 57 57 54 52 58 61 57 60 78 96 101 97 95 98 98 96 93 95 100 99 90 83 83 81 78 77 76 74 76 77 74 71 68 59 42 22 9 6 6 4 3 3 3 3 4 3 4 5 4 5 6 6 6 7 8 8 9 10 11 12 13 13 14 14 14
88 86 92 97 94 89 86 76 61 53 53 50 48 47 46 47 48 47 52 63 66 62 64 68 61 55 60 67 69 75 89 100 101 98 98 100 99 99 100 100 99 94 87 83 82 79 77 76 76 77 78 75 70 67 60 43 23 10 7 8 6 3 3 3 3 3 4 4 4 5 5 6 7 7 7 8 9 9 11 12 13 14 14 14 15 15 15
92 89 91 95 95 95 96 88 69 56 52 50 47 47 48 49 50 50 56 65 65 62 69 76 70 61 64 74 83 89 93 96 98 99 100 100 100 100 100 100 97 90 84 81 81 80 79 78 78 79 76 71 66 61 47 27 12 8 8 6 4 3 3 3 3 3 4 5 5 6 6 6 7 8 9 10 11 12 13 13 14 15 15 16 16 16 16
95 95 96 96 98 100 97 83 65 53 50 50 50 49 49 49 50 52 58 65 67 68 75 78 74 71 76 85 92 96 96 96 99 100 99 100 101 99 100 101 97 90 83 80 80 80 79 79 78 76 72 67 62 50 31 14 8 8 7 4 3 3 3 3 4 4 5 5 6 6 7 7 8 9 10 12 13 14 14 15 16 16 17 17 17 17 17
100 101 100 97 98 99 92 76 61 53 51 52 52 50 49 50 51 54 58 63 69 74 77 77 76 80 87 91 96 99 99 99 100 99 98 98 99 100 101 100 94 87 82 81 81 79 76 76 76 74 72 67 56 37 19 9 7 7 5 3 3 3 3 3 4 5 5 6 7 7 7 9 10 11 12 14 15 16 16 17 18 18 18 18 18 18 19
94 98 98 96 96 95 87 73 61 55 55 54 53 52 52 52 53 55 57 62 68 74 77 79 82 86 91 95 98 100 99 99 100 100 98 98 100 100 100 98 94 89 85 83 80 78 76 76 76 75 73 65 45 23 10 7 6 5 4 3 3 3 4 4 5 5 6 7 7 8 10 11 12 13 14 15 16 17 18 18 19 19 19 19 19 20 20
74 81 81 75 73 74 71 63 59 58 57 55 53 53 54 54 54 56 58 61 66 72 77 83 88 92 96 99 99 99 98 99 100 100 99 99 100 99 99 99 97 92 88 86 84 82 82 80 76 74 70 56 32 14 7 6 5 3 3 3 3 3 4 5 6 7 7 8 8 10 11 13 13 14 16 16 17 18 19 19 19 20 20 20 20 21 22
62 64 55 42 40 44 45 46 50 54 55 53 51 50 53 54 51 48 51 59 67 73 77 83 90 96 99 99 99 100 99 98 99 100 99 100 101 98 96 96 96 91 88 87 86 87 87 83 77 74 67 47 23 10 7 5 3 3 3 3 4 4 4 5 7 7 7 9 10 12 13 14 15 16 17 18 18 18 19 19 19 19 20 20 20 20 21
42 42 36 29 27 29 32 34 40 46 48 49 47 44 45 47 45 40 42 53 67 75 79 85 92 97 98 97 98 100 100 98 99 101 100 100 100 97 94 95 97 94 90 88 87 88 89 84 78 74 62 38 16 8 6 4 2 3 3 3 4 5 5 6 7 8 9 10 12 13 14 14 15 16 17 18 18 18 18 18 18 18 19 20 20 20 20
25 25 29 27 23 24 29 32 35 38 40 41 40 38 38 40 42 42 44 54 68 80 87 91 94 97 98 97 97 99 101 100 99 100 100 100 99 96 95 98 99 97 95 93 90 87 86 83 78 71 54 29 11 6 5 3 3 3 4 4 5 5 6 7 8 9 10 11 12 14 15 15 16 17 17 17 17 16 16 16 16 17 17 18 18 19 19
25 22 25 25 22 23 28 31 31 32 35 36 36 36 39 44 52 59 65 73 83 92 97 96 95 95 98 98 95 96 100 101 100 100 101 100 100 99 99 99 100 99 99 97 92 86 83 82 75 61 41 21 9 6 4 2 3 4 4 4 6 6 7 9 9 10 11 13 13 14 14 14 15 16 16 16 16 16 15 15 16 16 16 17 17 18 18
33 26 24 26 25 23 26 31 31 31 34 37 39 43 52 63 74 84 89 92 95 98 100 99 97 96 97 96 92 92 97 100 100 100 101 100 100 101 100 100 100 100 99 98 93 87 84 81 70 52 32 16 7 5 4 2 3 4 5 6 7 8 8 9 10 11 12 12 13 13 14 14 15 15 15 15 15 14 14 15 15 15 16 17 16 17 17
38 31 26 27 27 25 27 32 34 33 35 39 43 50 62 76 88 96 98 99 99 100 100 99 97 97 97 95 92 93 98 100 100 100 100 100 100 100 99 100 101 99 97 96 92 86 83 78 63 44 30 18 8 4 3 3 3 5 6 6 7 8 9 10 11 11 12 12 13 13 13 14 14 14 13 14 14 14 14 14 15 15 15 16 16 17 17
47 39 31 28 28 28 29 34 37 37 36 37 41 50 63 77 90 97 99 99 100 101 100 99 98 99 100 99 98 98 100 100 100 101 100 100 101 101 100 100 101 99 98 97 90 83 81 73 53 35 29 23 11 3 3 4 4 5 7 7 8 9 10 10 11 11 12 12 12 13 13 13 13 13 13 13 13 13 13 13 14 15 15 16 16 16 17
49 44 38 36 32 29 30 35 38 38 36 38 46 55 66 79 93 100 100 99 100 100 100 100 101 100 99 99 99 100 100 99 100 101 100 98 98 99 99 99 99 100 100 96 90 84 78 63 42 32 32 26 12 3 3 5 5 5 7 7 8 9 10 10 11 12 12 12 12 12 13 12 12 12 12 12 12 13 13 14 14 14 15 16 16 16 17
47 45 43 40 35 31 31 33 35 35 35 40 50 61 70 82 94 100 100 100 101 100 99 100 100 99 98 98 98 99 101 101 100 100 98 95 94 95 96 97 99 100 98 94 89 82 69 50 36 35 34 23 9 3 5 5 5 6 7 7 8 9 10 10 11 11 11 12 12 12 12 12 12 12 12 12 13 13 13 13 14 14 14 15 16 16 17
50 49 46 43 40 37 33 30 32 36 38 42 52 67 80 89 97 100 100 99 100 100 100 100 101 100 98 98 99 99 100 101 101 98 96 95 94 93 93 95 97 96 93 89 85 77 63 48 41 39 30 16 5 4 5 5 5 6 6 7 8 9 9 10 11 11 11 11 12 12 12 12 11 11 12 13 13 14 15 15 16 16 15 15 16 16 17
54 55 54 53 51 47 40 35 34 37 40 46 56 69 79 87 94 98 96 92 94 99 100 99 100 101 100 99 101 100 99 99 101 100 99 98 98 96 93 91 91 90 87 84 81 76 65 54 45 37 24 12 5 5 6 5 5 6 7 7 8 9 9 9 10 10 11 11 11 11 11 11 11 12 13 14 13 13 14 14 14 14 14 15 15 15 15
53 53 56 61 62 57 51 47 43 40 40 48 61 73 80 83 89 95 93 86 89 98 102 99 99 101 101 99 100 100 99 98 98 99 100 100 99 97 94 92 90 88 85 82 79 74 65 55 47 38 25 12 6 5 6 6 6 7 8 8 8 9 10 10 10 10 11 11 11 11 11 11 12 12 12 13 14 14 14 15 15 15 15 15 14 15 15
43 44 51 63 70 69 65 59 52 45 42 47 63 82 90 85 85 94 98 91 88 95 100 100 100 100 100 100 101 100 99 97 94 95 98 97 92 89 91 91 89 88 85 81 78 76 71 64 59 49 32 16 8 6 6 7 7 7 9 12 14 13 11 10 10 10 9 10 11 12 11 11 12 13 13 13 14 14 13 13 13 13 13 13 14 15 18
24 27 31 42 59 74 82 78 68 58 51 52 65 86 94 89 86 95 101 98 95 97 99 100 101 100 99 100 100 99 100 102 99 95 94 90 83 82 86 88 89 90 89 84 81 79 76 73 70 59 39 20 11 8 7 7 8 9 12 20 25 22 14 9 8 10 11 11 11 11 11 11 11 11 12 13 13 13 14 14 14 14 15 16 18 22 27
9 12 19 34 53 72 88 94 89 77 64 58 66 83 93 93 94 98 100 99 100 101 99 98 99 96 92 93 94 93 93 97 96 93 90 86 81 81 87 91 92 92 91 87 83 80 78 75 73 64 44 24 13 9 8 8 8 8 10 17 22 19 13 9 8 9 10 10 10 10 10 11 12 12 12 13 13 13 14 14 14 16 20 24 30 38 45
7 19 39 56 63 66 76 90 95 89 78 68 66 75 87 93 97 100 101 99 99 100 100 101 100 94 85 84 86 84 80 81 84 86 87 85 81 79 83 88 90 92 92 90 87 83 80 77 72 63 49 32 19 11 8 9 10 11 12 13 13 10 8 8 10 11 11 12 13 12 12 12 13 13 13 13 13 14 15 17 20 24 31 38 44 49 51
17 32 48 56 52 52 66 83 89 90 91 86 74 71 80 90 95 99 101 101 99 100 100 99 97 91 86 86 88 86 83 87 92 92 89 87 87 86 86 88 89 90 90 90 87 84 82 81 78 69 56 42 28 17 11 9 11 13 11 8 7 9 11 12 12 13 12 10 11 12 12 12 13 14 14 16 19 22 24 29 35 43 52 63 71 74 73
Wind_Speed
19 19 21 23 25 27 27 27 27 29 31 31 29 25 24 23 19 14 11 10 10 13 14 15 17 23 26 25 25 28 29 29 31 32 31 30 27 26 24 24 25 27 30 32 29 27 26 24 23 23 23 24 24 24 23 22 20 18 16 15 16 17 17 15 15 16 17 19 20 22 24 25 25 24 24 24 23 22 22 21 20 20 19 19 19 19 20
17 17 19 22 24 25 27 29 27 26 28 31 31 27 23 23 23 18 12 10 12 14 15 16 18 21 25 26 26 27 28 28 30 30 29 28 27 25 25 25 27 30 32 31 27 26 25 25 24 24 23 22 23 24 24 23 21 18 17 17 16 15 16 17 17 16 17 18 20 22 23 23 23 23 22 22 21 21 21 20 19 19 19 18 18 19 20
18 18 18 20 22 22 24 27 27 25 26 28 31 30 25 22 22 21 18 13 11 14 17 19 20 22 24 24 23 22 24 27 28 27 27 27 26 25 26 26 28 31 32 28 25 26 27 27 26 24 23 23 23 24 24 22 20 18 18 19 18 17 17 19 20 20 19 20 20 22 22 22 21 21 20 20 19 19 19 18 18 18 18 18 18 19 20
17 17 17 19 22 21 22 26 27 27 27 27 30 31 29 25 21 20 21 16 10 15 20 19 20 23 22 20 17 14 16 21 25 26 26 25 24 25 25 27 29 29 27 24 24 27 28 27 26 25 24 25 25 25 24 21 19 19 20 20 20 19 20 21 22 22 21 21 21 21 20 19 19 18 18 18 18 17 17 17 17 17 17 18 18 19 20
15 17 17 17 18 18 19 25 27 28 28 27 28 31 32 30 24 21 22 18 12 15 19 18 19 21 19 18 16 12 11 13 17 22 24 24 23 23 24 28 30 27 25 24 25 26 27 28 27 26 26 27 27 25 23 20 19 20 21 20 20 20 21 23 24 23 22 21 20 19 18 17 17 16 17 17 16 16 16 16 17 17 17 17 17 18 18
13 16 14 10 10 10 12 20 24 25 27 28 26 28 29 29 27 23 20 18 13 11 13 15 18 20 19 18 16 14 10 9 11 15 19 21 21 21 24 27 28 25 23 23 26 27 28 29 29 30 30 28 25 22 21 21 21 22 22 21 21 22 23 25 25 23 22 21 18 16 15 15 15 15 15 15 15 16 15 15 16 15 15 15 15 16 16
12 14 11 5 7 9 10 16 21 21 24 27 26 25 24 25 27 24 20 18 16 13 12 15 17 18 19 18 15 13 12 11 11 9 10 14 18 20 23 26 26 25 22 22 24 26 28 31 32 31 28 24 20 19 20 21 22 22 22 22 22 23 25 25 24 23 21 18 16 14 14 14 14 14 14 15 15 15 14 14 14 14 14 13 13 12 12
12 14 14 7 5 9 12 16 19 20 21 23 26 28 26 25 26 26 23 21 19 18 16 15 16 17 19 18 16 15 15 15 13 9 7 10 15 18 23 25 24 23 22 22 23 23 26 30 30 23 18 16 16 18 20 20 20 20 21 22 24 25 25 24 24 22 18 15 14 13 13 13 13 14 14 14 14 13 13 13 12 12 11 10 9 8 7
12 12 15 9 2 6 13 15 15 19 21 20 21 24 25 26 26 26 26 23 21 21 20 17 16 19 20 18 18 19 18 17 15 10 6 9 13 16 20 22 21 21 22 22 22 20 22 25 22 16 14 16 19 20 21 20 20 21 22 23 25 26 25 24 21 18 15 13 12 12 12 13 13 13 13 12 12 12 11 11 10 9 8 6 4 4 5
12 10 11 10 5 4 10 12 13 19 23 21 18 16 17 23 27 26 26 25 23 24 23 20 18 19 19 18 19 21 20 18 15 11 9 12 15 15 17 20 22 23 22 21 19 17 17 19 20 19 19 20 20 21 21 21 21 23 24 25 26 25 23 20 17 14 12 12 12 12 12 12 11 11 11 10 10 10 9 8 7 5 3 2 2 3 4
14 12 8 9 8 6 9 12 12 17 21 20 18 16 15 20 25 25 26 27 26 24 21 19 20 20 20 20 20 20 20 18 15 13 14 17 18 16 16 19 22 23 21 20 19 18 18 19 20 21 21 21 21 21 22 22 23 24 24 24 22 19 16 14 13 12 11 12 12 12 11 10 9 9 8 8 8 8 7 5 3 1 1 2 3 3 4
13 13 9 7 6 5 11 13 10 13 19 19 18 15 15 20 24 23 25 27 28 26 21 20 22 21 18 19 19 18 16 15 15 15 17 19 21 21 20 21 21 21 21 21 21 20 19 19 19 20 21 21 21 21 22 21 21 20 18 17 14 12 12 12 12 12 12 12 12 11 9 8 8 7 7 7 7 6 5 3 2 3 3 3 3 3 4
12 11 10 8 5 5 10 11 8 11 17 20 18 15 15 20 24 24 26 25 25 25 23 21 22 21 18 17 18 15 11 11 13 17 20 21 23 25 25 24 22 22 23 22 21 20 18 18 19 20 20 21 20 20 19 17 16 15 13 11 10 11 12 12 12 12 12 11 10 9 9 9 10 10 10 9 7 5 4 5 5 5 5 4 3 3 3
13 12 12 9 5 5 8 8 8 11 16 17 18 17 16 19 24 27 27 26 23 23 22 21 21 23 23 20 18 14 9 9 12 19 24 25 26 27 26 24 22 23 25 24 22 21 20 19 19 19 19 18 17 16 16 15 15 14 12 10 11 12 12 12 12 11 11 10 10 10 12 13 14 13 11 8 7 7 8 8 7 6 5 4 2 2 3
12 12 12 9 5 7 9 8 9 14 17 13 13 16 16 17 21 24 24 25 25 23 22 21 21 25 25 21 17 14 9 8 11 20 26 27 27 26 25 23 23 24 25 23 22 22 21 20 18 17 17 16 15 14 14 14 14 12 11 11 11 11 12 12 12 12 12 12 12 13 14 13 12 10 9 9 10 10 9 9 8 6 4 3 2 2 2
13 11 10 7 4 6 8 7 9 16 18 12 10 13 15 17 22 24 22 22 24 24 25 24 23 24 24 20 18 16 12 10 13 22 28 27 26 26 25 25 26 25 24 23 23 22 20 18 17 16 16 15 14 14 15 14 13 12 12 12 12 12 12 13 12 12 13 13 13 13 12 11 10 10 10 11 11 10 9 9 7 5 4 3 2 2 3
10 7 5 7 6 4 4 7 10 13 14 12 10 12 14 18 23 25 22 22 24 25 25 23 21 22 22 20 18 16 13 12 14 21 26 26 26 27 27 28 28 26 23 23 22 21 19 17 17 17 16 15 16 16 16 15 14 13 13 12 12 13 13 13 12 12 12 12 12 12 11 11 11 11 12 12 12 11 9 8 7 5 5 4 3 2 3
5 3 3 6 8 7 5 7 10 10 9 10 11 12 13 14 19 24 23 20 21 22 21 21 20 20 21 21 20 16 14 13 14 19 24 26 26 27 29 30 29 26 25 24 23 20 19 18 16 16 16 17 18 18 17 16 15 14 13 13 13 12 12 12 12 12 11 12 12 12 12 12 12 13 13 12 11 10 9 8 7 6 5 3 2 2 3
5 4 4 6 9 10 8 7 8 8 7 7 8 9 8 7 11 19 23 21 19 19 19 20 20 20 21 23 22 18 15 14 15 18 23 26 27 28 30 30 29 27 26 26 23 20 18 16 15 15 17 18 19 19 18 17 15 14 14 13 12 11 11 12 12 11 11 12 13 13 13 13 14 13 12 11 9 8 7 6 6 5 3 2 2 2 3
8 6 7 8 8 8 7 5 6 7 5 5 5 6 6 5 5 10 18 23 22 18 16 18 21 22 23 25 23 19 16 15 16 18 24 29 30 31 30 29 28 28 27 25 22 18 16 16 16 16 17 18 19 18 18 16 15 14 14 13 12 12 12 12 11 11 12 13 12 12 11 12 12 12 11 10 9 8 6 5 4 3 2 1 1 2 3
10 9 8 8 7 6 6 5 5 5 5 6 7 7 7 7 5 4 9 17 21 19 16 18 23 25 25 26 24 18 14 14 16 20 27 32 32 32 31 31 30 28 26 24 20 17 16 17 17 16 17 18 18 18 17 16 15 15 14 14 13 13 12 12 12 13 14 13 13 13 14 14 14 13 11 10 9 7 6 4 4 3 2 1 1 2 4
8 9 9 10 10 9 9 9 7 6 7 7 7 8 8 8 8 5 5 11 17 19 17 18 22 24 25 26 23 17 14 15 16 21 28 32 32 32 33 34 32 29 26 23 19 17 18 18 16 14 16 17 18 17 16 15 15 15 14 14 14 13 12 13 14 14 14 15 16 17 17 16 15 14 12 10 8 7 5 4 3 2 1 1 2 3 4
5 7 8 9 10 10 12 13 10 8 9 7 5 5 6 7 9 9 8 10 14 16 16 16 18 20 23 23 20 16 15 17 19 23 28 31 32 34 35 35 32 29 27 24 20 18 18 16 14 14 16 17 18 17 16 15 15 14 14 14 14 14 14 14 15 15 16 17 17 17 17 16 14 12 11 9 8 6 5 4 3 2 1 1 2 3 4
5 5 5 8 10 9 9 11 10 10 10 8 5 4 5 7 8 9 10 10 12 12 13 14 14 17 19 18 16 15 16 19 21 25 29 30 30 32 34 34 32 29 27 23 19 17 16 15 14 15 17 18 18 17 15 15 14 14 14 15 14 14 14 15 15 16 17 18 18 17 16 15 13 11 10 8 6 6 5 4 3 2 1 1 2 3 4
7 7 5 6 8 8 8 8 8 10 11 9 7 6 6 7 7 8 9 9 10 9 11 13 14 16 16 15 14 15 18 20 24 28 31 32 31 32 34 34 31 27 24 21 18 18 17 15 15 16 18 18 17 16 15 14 14 14 15 15 14 14 14 15 16 17 18 18 18 17 15 13 12 10 9 8 6 5 4 3 2 2 1 2 2 3 3
9 10 9 7 7 7 9 9 9 10 11 10 8 8 7 7 7 8 8 9 9 9 10 13 14 15 15 15 15 16 19 22 26 30 33 34 35 36 35 33 30 26 23 21 20 19 18 16 16 18 19 18 17 15 14 14 14 15 16 15 14 14 15 16 18 19 19 19 18 16 14 12 11 9 8 7 6 5 4 3 3 2 2 2 2 2 2
7 8 10 10 9 7 7 8 9 10 12 10 8 8 9 9 9 9 9 10 10 10 11 13 13 13 15 15 16 17 20 25 29 33 35 36 37 36 34 31 29 26 23 22 21 20 18 18 18 19 19 18 17 15 15 15 15 16 15 14 15 16 17 18 20 20 20 19 17 15 13 11 10 9 8 7 6 5 4 4 3 3 2 2 2 1 1
6 7 8 9 9 8 9 10 10 11 11 10 9 9 9 10 11 11 10 11 11 12 12 12 12 13 14 16 17 19 22 28 34 38 38 37 36 34 32 31 29 26 24 23 21 20 19 19 20 20 19 18 17 15 15 15 15 15 15 16 17 18 19 21 21 21 20 18 16 14 12 11 10 9 8 7 6 5 5 4 4 3 3 2 1 0 1
9 10 10 9 9 7 7 10 11 11 10 10 9 9 9 9 11 12 12 12 12 12 11 11 11 12 14 16 18 20 24 32 39 41 40 38 37 35 33 31 28 25 23 23 21 20 20 20 21 20 19 17 16 15 15 15 15 15 16 17 19 20 22 22 22 21 19 17 14 12 11 10 9 8 8 7 7 6 5 4 4 3 2 1 0 1 2
8 10 11 10 8 5 3 7 10 10 10 10 9 8 8 8 9 11 12 12 13 12 10 11 12 13 14 15 16 18 24 32 38 41 40 37 35 34 32 30 28 25 24 23 22 22 22 21 20 20 18 17 16 15 15 16 16 16 17 19 21 22 23 22 21 20 18 15 13 12 11 10 10 9 8 7 7 6 5 4 3 2 2 1 1 1 2
7 9 9 8 8 7 5 9 12 11 11 11 10 9 9 8 8 10 10 12 13 12 11 12 14 14 15 15 16 19 25 31 38 41 38 34 33 33 32 30 27 25 24 25 24 23 22 20 19 18 18 17 16 15 16 17 17 18 20 22 23 23 23 22 20 18 15 14 13 13 12 11 10 9 8 7 6 6 4 3 2 1 2 2 2 2 3
4 4 5 6 8 8 8 11 13 13 12 12 11 11 11 10 9 9 11 12 13 13 13 15 16 16 17 18 19 21 25 31 38 41 38 35 36 36 33 30 27 25 25 25 23 22 20 19 18 18 18 17 15 15 16 17 18 20 22 23 23 23 23 21 19 17 15 15 14 13 12 11 10 9 8 7 6 5 4 3 2 2 3 3 4 4 4
5 4 5 7 8 8 10 12 14 13 12 12 13 13 12 11 10 11 12 13 13 14 15 16 16 17 19 21 21 22 25 30 35 38 38 38 38 37 35 34 31 29 27 25 23 21 20 18 18 18 17 16 16 16 17 18 20 21 22 23 23 23 22 20 18 17 16 16 15 13 12 11 11 9 8 7 5 4 3 2 2 3 3 4 4 4 4
8 7 8 9 9 10 13 14 14 14 12 13 13 13 13 13 13 13 13 14 14 15 15 15 16 18 19 21 22 22 24 29 35 39 39 39 40 40 38 35 32 30 29 27 24 22 20 18 17 17 16 16 16 17 18 20 21 22 22 23 24 23 21 19 18 18 17 16 15 14 13 12 11 9 8 6 5 4 3 3 3 3 4 5 4 4 5
5 5 8 10 10 11 12 13 13 13 13 13 13 13 14 14 14 14 15 15 15 16 15 15 16 18 19 20 21 21 21 26 34 39 39 38 36 34 31 28 28 28 29 27 25 23 20 18 17 17 16 16 17 17 19 21 22 22 22 24 24 23 21 19 19 19 17 16 15 14 13 12 10 8 7 6 5 4 4 4 5 5 5 6 5 4 4
4 4 6 7 7 9 10 11 11 12 13 13 13 13 13 14 14 15 16 17 17 17 16 16 17 20 21 22 22 20 18 20 28 35 37 34 30 27 26 27 28 28 28 27 25 23 21 19 17 17 16 17 17 18 20 22 22 22 24 25 24 22 21 20 20 19 18 16 15 14 13 11 9 7 6 6 6 5 5 6 6 6 6 7 7 6 5
7 8 8 7 6 7 9 9 10 11 13 13 13 13 13 14 15 15 16 17 18 19 17 17 18 21 22 22 20 17 15 16 22 31 34 30 26 26 27 28 29 29 28 27 25 22 20 18 17 16 17 17 18 20 22 23 22 24 26 25 24 22 22 21 20 19 18 17 15 14 12 10 8 7 7 7 7 7 7 7 7 7 7 7 8 8 8
8 8 8 7 7 7 8 8 8 9 11 12 13 13 13 14 15 15 16 17 18 19 18 18 19 21 22 20 18 17 17 18 22 29 32 28 26 28 29 29 29 29 28 27 25 23 20 18 17 16 17 19 21 22 24 23 23 25 26 25 23 22 22 21 20 19 18 17 15 13 12 10 9 8 8 9 9 8 8 9 9 8 9 8 9 10 10
6 5 5 6 6 7 7 7 7 7 8 10 11 11 12 13 13 13 14 16 18 19 19 21 22 21 20 20 19 18 19 21 24 27 27 26 27 30 31 30 29 29 28 28 27 23 19 17 16 17 19 21 23 24 24 24 24 26 26 24 23 23 22 21 20 19 18 17 15 13 12 11 10 10 9 10 10 10 9 10 10 10 10 10 11 11 12
6 5 4 4 5 7 7 7 6 5 6 7 8 9 10 11 11 12 13 16 19 21 22 23 22 21 20 20 19 18 19 21 24 26 26 25 27 30 31 30 29 29 29 29 27 21 16 15 16 18 20 22 24 24 24 25 25 26 25 25 24 24 23 22 21 20 18 17 15 14 12 11 11 11 10 11 11 11 11 11 11 11 11 11 12 13 13
6 6 5 3 4 5 6 6 6 6 5 6 6 7 7 9 11 13 15 15 17 20 22 22 22 22 22 22 21 20 21 23 25 26 26 27 29 30 29 28 28 29 29 28 24 20 16 15 17 19 20 22 24 24 24 25 26 26 26 26 25 24 24 23 21 20 19 17 16 14 13 12 12 12 12 12 12 12 13 12 12 13 13 13 14 14 15
6 7 6 5 4 5 5 6 6 7 7 6 5 5 6 7 9 11 14 16 17 19 21 23 24 24 25 24 23 23 25 27 27 27 27 28 27 26 24 25 26 28 28 25 22 19 17 16 17 19 19 20 22 24 25 26 27 26 26 25 25 24 24 23 21 20 19 18 17 15 14 14 14 14 14 14 14 14 14 14 14 14 15 15 16 16 16
6 7 7 7 6 5 5 5 6 7 7 6 5 5 5 7 8 9 11 14 17 18 19 22 24 24 24 24 25 27 28 29 28 27 27 25 22 19 20 21 23 24 23 21 19 17 16 15 17 18 18 17 20 25 27 27 27 27 26 26 25 24 24 23 22 21 20 19 17 15 15 15 15 15 16 16 16 15 15 15 15 16 16 16 17 17 18
5 6 7 7 7 7 7 6 5 6 7 6 6 6 6 6 8 9 10 12 13 13 14 17 20 20 21 25 28 27 26 26 26 26 26 24 21 19 19 19 19 20 20 17 15 14 13 13 14 16 17 17 20 25 27 27 27 27 27 26 25 24 24 24 23 23 21 19 17 17 16 16 17 17 17 17 17 16 16 16 17 18 18 18 18 19 19
5 6 6 7 7 8 9 8 6 6 7 6 6 7 7 7 7 9 10 11 11 10 10 13 15 17 20 25 27 24 22 22 23 23 22 21 20 20 20 20 19 19 17 14 12 12 12 12 14 16 16 17 20 24 27 27 27 26 26 25 24 24 24 24 23 22 21 20 19 19 18 18 18 18 18 17 17 17 17 18 19 19 19 19 20 20 20
4 5 5 6 6 7 8 8 8 7 8 8 7 7 8 8 9 9 9 9 9 9 10 12 14 16 19 23 24 23 22 21 20 18 18 19 19 20 19 18 17 15 13 12 12 13 13 14 16 16 16 17 20 23 25 26 25 24 24 24 23 23 23 23 23 22 21 21 21 20 20 19 19 19 18 18 19 19 19 20 20 21 21 21 21 21 22
4 5 4 5 6 6 6 7 8 9 9 10 9 8 8 8 10 10 10 10 10 9 10 12 15 17 19 22 23 22 21 20 18 17 18 19 20 19 18 16 13 11 10 12 13 14 14 14 15 15 15 17 20 22 23 24 24 24 24 24 23 23 23 23 23 23 23 22 22 22 21 21 20 20 19 19 20 20 21 21 21 22 22 23 23 23 23
3 4 3 3 4 4 5 6 8 9 10 10 10 10 10 9 9 11 12 13 12 11 11 15 19 22 23 23 22 21 18 16 16 18 20 19 18 17 16 13 10 9 11 13 13 13 13 13 13 13 14 16 18 20 22 23 24 24 24 23 22 23 24 24 24 24 23 22 22 22 23 22 21 20 20 20 20 21 22 22 22 23 23 23 23 23 23
2 3 3 2 3 3 3 4 5 7 10 11 13 14 13 11 10 10 12 13 14 15 16 18 21 22 21 20 20 18 16 15 15 16 17 16 14 14 13 12 10 10 12 14 13 13 12 12 12 13 14 15 18 20 22 23 24 24 24 22 21 23 25 25 24 23 22 22 22 22 23 22 21 20 20 20 21 21 22 23 23 24 24 24 24 24 24
2 2 2 1 1 2 2 2 3 5 8 11 14 16 17 15 13 11 10 12 16 19 21 21 20 17 14 14 15 16 17 17 17 15 14 12 12 12 12 12 12 13 14 14 14 14 13 12 12 13 14 15 18 20 22 23 24 25 24 24 23 23 24 23 23 22 22 21 21 21 21 21 21 20 21 21 21 22 22 23 23 23 23 24 24 24 25
3 2 1 0 1 2 3 4 5 6 7 9 12 17 19 18 17 15 13 13 15 19 20 21 19 16 13 13 15 16 17 17 18 17 15 13 12 11 11 12 13 13 14 14 13 13 13 12 12 13 15 16 18 21 22 22 23 24 24 25 25 24 23 22 22 21 20 19 19 19 20 20 20 21 21 22 23 23 24 24 24 23 23 22 22 23 24
2 1 1 0 0 1 3 4 5 6 6 6 9 14 18 19 20 19 18 17 17 18 18 17 16 14 14 16 19 19 19 18 17 16 14 13 11 10 10 12 12 12 12 12 12 12 13 12 13 14 15 16 18 21 22 23 23 24 25 25 24 22 21 20 19 19 18 18 19 19 19 19 20 21 22 22 23 23 22 21 20 19 19 19 20 22 23
Wind_Direction
206 196 197 197 194 201 208 211 212 205 203 217 229 219 206 214 227 224 193 170 168 170 177 186 189 192 193 189 191 197 199 203 209 216 221 223 222 218 217 220 215 210 213 215 212 214 218 221 221 220 220 222 219 217 217 217 216 215 214 220 232 243 254 268 277 276 268 263 268 273 276 276 272 269 267 267 269 270 271 273 274 276 278 280 284 289 294
211 200 201 200 195 199 206 209 211 207 205 216 224 219 208 211 224 228 218 210 206 196 190 191 196 205 204 200 205 212 210 210 214 217 220 221 219 216 216 218 215 213 215 217 214 215 221 225 226 223 220 218 216 214 213 210 207 207 210 216 223 232 243 254 265 275 277 274 275 277 278 277 273 270 269 269 270 271 272 273 275 277 279 282 286 292 296
216 225 220 201 194 201 206 207 210 209 208 213 217 217 216 215 218 223 227 232 224 203 185 180 196 213 214 209 213 219 219 221 223 222 223 224 222 223 222 218 214 213 215 216 214 216 223 226 228 226 219 213 213 213 215 214 212 211 216 224 232 236 240 249 261 271 277 280 281 280 278 276 273 271 270 269 270 272 273 275 276 278 280 284 289 295 300
214 231 225 201 194 203 207 208 210 210 210 212 212 214 218 219 217 218 222 224 205 180 175 180 199 213 215 211 212 217 220 224 228 230 233 235 236 235 226 213 211 214 214 212 213 218 222 222 222 222 215 211 213 216 218 221 220 224 229 234 241 243 242 251 262 270 276 282 284 280 276 273 271 269 269 269 270 272 273 275 277 278 282 287 293 299 304
210 218 222 217 207 204 207 209 210 210 211 212 210 211 214 214 215 219 217 212 196 179 179 187 200 206 208 208 213 221 218 214 221 226 229 233 234 232 221 208 209 214 214 213 216 220 221 220 219 215 212 214 218 219 221 224 226 233 240 241 242 243 247 258 267 273 279 284 283 277 271 269 268 268 268 269 270 270 271 273 276 280 285 291 298 304 309
211 210 215 224 212 207 209 206 207 211 214 213 212 213 211 208 213 221 212 204 209 201 189 195 203 206 213 221 229 238 237 226 223 222 222 223 222 221 217 210 208 211 212 214 217 218 220 221 219 215 212 214 218 220 223 229 233 239 246 247 246 246 254 265 270 274 280 282 277 270 266 265 266 268 269 269 269 270 271 273 277 283 289 295 303 309 313
205 197 193 196 204 217 221 210 209 212 214 214 214 216 213 206 211 218 210 205 216 215 202 208 213 213 221 230 237 245 249 245 242 239 233 225 219 217 214 209 209 214 217 219 221 222 223 222 221 219 214 211 214 223 229 234 239 242 247 250 250 252 258 264 269 274 277 275 269 264 263 265 267 268 268 268 269 270 274 277 281 287 294 302 310 315 318
196 180 185 203 219 224 230 226 221 217 213 210 209 213 214 208 209 213 211 212 215 209 200 201 207 217 227 235 241 248 250 249 250 258 255 230 218 211 206 204 206 213 219 222 222 226 230 230 226 223 217 212 220 232 237 240 243 246 249 253 255 256 259 264 270 274 272 266 261 259 261 263 264 264 265 266 269 272 276 279 284 292 301 309 316 321 329
207 185 191 207 224 235 236 235 228 220 217 209 205 212 213 208 208 209 208 212 215 210 205 203 209 221 227 231 239 243 245 248 249 248 236 213 204 202 201 199 200 208 214 216 216 224 239 241 231 217 212 219 228 236 241 243 247 250 252 256 258 260 262 266 269 268 262 258 258 258 260 260 260 261 263 265 269 272 275 280 288 299 307 316 329 346 356
213 198 201 211 220 241 232 227 223 219 218 213 212 224 221 207 207 207 203 208 213 208 203 203 208 217 222 227 237 240 240 244 244 230 203 190 192 197 196 192 193 199 204 205 209 218 230 233 222 212 215 224 230 236 241 246 250 253 256 258 259 260 262 262 260 256 255 256 257 255 255 254 255 259 263 267 270 273 277 285 294 302 314 353 21 19 14
210 203 211 222 229 224 202 207 218 217 213 208 211 231 235 209 204 206 203 206 212 209 203 204 207 214 227 235 237 238 240 241 235 218 195 185 185 185 184 188 192 193 194 198 203 206 209 212 213 216 223 228 233 239 245 250 254 256 257 257 256 255 253 251 249 248 248 249 249 248 247 247 250 255 259 265 272 278 285 288 287 284 92 74 54 37 26
216 213 222 231 236 211 188 194 208 206 199 193 195 217 228 207 201 203 198 202 215 219 215 215 214 215 230 240 236 236 243 242 227 208 192 186 183 177 179 190 193 190 193 197 197 197 200 204 209 217 225 231 237 244 248 251 252 250 248 247 245 240 238 238 240 240 239 238 238 238 237 239 244 251 260 272 281 286 280 247 180 140 121 100 74 53 34
219 219 230 233 219 207 199 195 197 192 188 189 195 207 211 205 206 203 192 198 220 226 220 219 218 215 223 233 232 232 242 245 223 201 190 186 183 180 186 192 188 184 191 196 193 193 198 204 212 221 228 235 241 245 244 241 237 232 228 226 226 228 230 233 237 237 235 232 230 232 238 248 258 266 272 275 270 249 212 177 153 136 124 110 89 62 33
218 213 229 235 211 214 223 218 211 192 183 190 202 203 198 201 207 205 200 205 221 225 221 220 219 216 217 221 225 228 238 247 223 196 186 184 184 185 190 191 185 186 192 193 192 195 203 212 220 228 235 241 245 241 233 225 219 214 210 209 216 224 228 233 236 232 227 227 233 245 255 260 263 264 260 244 216 191 172 156 144 136 128 115 93 66 41
220 216 225 234 219 199 204 217 216 193 182 187 199 199 198 197 195 196 202 210 215 218 218 216 214 216 217 218 223 229 237 248 217 190 185 188 189 186 184 184 187 191 193 193 194 201 210 217 224 234 243 248 245 232 217 209 204 200 199 205 214 222 226 228 226 224 229 238 248 255 257 254 248 236 218 199 182 168 158 150 143 140 135 125 111 85 61
215 220 217 216 206 182 185 208 209 189 184 187 190 191 192 187 182 182 190 204 213 216 215 211 209 213 215 217 224 229 234 241 212 191 190 193 188 181 178 184 192 195 193 196 201 205 212 220 230 242 248 244 231 214 203 199 196 194 199 207 215 219 222 225 228 234 242 246 247 244 239 230 218 204 191 179 167 159 155 151 149 151 152 149 140 109 71
202 211 188 176 178 173 184 206 197 182 182 189 192 191 189 188 188 187 187 200 209 206 201 200 204 212 217 221 229 233 235 236 213 198 198 195 184 179 183 190 197 197 195 200 206 209 214 226 239 245 239 226 213 203 197 196 194 195 202 209 215 221 225 230 235 238 239 238 234 228 218 208 196 184 173 165 160 158 158 158 162 168 169 163 146 105 64
192 155 125 159 169 163 158 169 171 170 177 186 192 197 195 193 195 193 193 204 208 200 197 203 210 218 223 224 228 234 234 228 215 206 202 192 181 183 191 195 197 198 198 202 207 210 220 231 236 230 219 210 204 199 195 194 193 197 205 210 215 220 223 227 230 231 230 228 222 214 204 192 181 172 168 165 164 165 167 171 177 179 175 164 134 84 53
202 167 157 166 163 159 155 154 165 179 196 201 197 197 196 194 193 192 196 207 214 212 215 220 222 225 225 222 225 232 230 220 215 210 201 189 183 189 196 198 198 198 201 205 208 213 223 227 219 211 207 205 202 198 196 194 195 199 204 207 210 214 218 224 226 225 223 220 213 205 194 182 173 167 163 161 163 168 174 181 185 183 175 158 103 57 36
211 202 192 185 172 160 156 165 182 191 212 233 228 220 213 209 198 190 194 203 211 213 215 219 221 224 225 222 223 228 227 220 215 207 195 188 187 190 196 201 202 201 205 210 213 218 222 217 208 207 207 204 202 201 197 195 195 198 201 203 207 212 218 221 221 219 218 215 206 193 180 171 166 163 162 165 170 174 178 183 185 181 174 140 67 35 18
199 204 202 200 199 185 173 186 210 227 247 249 243 243 239 233 236 215 191 199 206 206 208 217 223 225 227 229 229 227 222 218 212 200 191 190 191 192 197 204 206 205 209 215 217 218 217 211 206 205 204 202 202 201 198 195 195 197 200 205 211 216 218 215 213 215 212 200 183 170 165 162 163 167 172 177 180 182 187 188 186 183 174 110 44 18 4
190 206 213 208 211 217 213 208 219 243 253 252 247 242 239 239 237 224 191 192 198 201 209 224 232 234 236 237 236 229 217 213 210 200 195 195 195 196 200 206 206 205 210 217 219 216 212 207 203 201 201 201 200 198 196 195 195 198 204 211 216 217 212 209 210 209 198 183 172 169 167 166 169 174 179 182 183 186 189 187 186 185 167 65 14 359 350
177 202 212 202 201 217 222 216 221 237 241 244 243 224 222 238 240 231 218 200 194 199 208 218 229 238 240 240 240 231 214 208 205 201 201 202 201 200 204 207 207 207 212 218 220 216 209 206 203 202 202 201 198 195 194 195 197 203 210 215 217 213 207 206 205 197 186 177 172 169 169 171 174 177 182 188 191 190 184 180 181 176 148 6 344 339 335
194 204 212 203 200 208 210 205 212 224 223 219 213 201 215 241 245 242 236 217 202 203 203 204 221 238 241 240 240 229 214 208 204 202 204 207 208 208 209 209 210 213 217 222 223 218 210 207 207 206 203 200 197 194 193 197 203 210 215 217 214 209 206 203 196 187 179 174 171 170 173 176 178 180 184 190 192 190 184 182 180 178 219 298 310 315 320
241 239 229 209 202 203 204 204 214 219 213 208 217 233 254 261 250 243 240 229 221 215 201 198 220 241 246 243 236 223 214 209 206 204 205 206 208 211 213 212 213 215 220 225 226 219 212 209 209 207 203 200 197 194 197 203 210 216 219 218 211 204 202 196 187 181 176 172 171 174 177 180 183 186 188 188 187 185 187 190 192 203 245 279 295 305 315
246 239 231 220 209 204 205 210 221 223 216 213 224 241 255 258 246 237 234 229 225 221 208 206 221 238 246 243 235 224 214 207 204 206 206 205 207 210 212 212 214 217 221 225 224 217 211 209 208 207 204 200 199 199 203 210 216 220 221 215 203 197 195 189 181 177 174 173 175 178 181 184 188 189 188 187 186 186 191 199 206 218 235 255 278 295 314
239 236 231 224 217 212 209 208 214 220 218 217 226 235 239 240 236 230 226 221 216 212 212 216 224 235 240 238 233 223 212 203 202 203 203 203 207 210 211 212 215 218 221 223 219 213 210 209 207 206 203 201 202 206 211 216 220 221 217 205 195 192 189 182 178 176 176 177 179 181 183 186 189 189 188 189 188 189 195 201 207 218 225 233 250 280 333
207 209 213 208 204 211 223 223 222 226 227 224 228 234 234 235 234 227 219 217 217 216 217 219 222 228 235 236 231 221 207 198 197 198 199 201 206 210 212 214 214 215 218 219 215 211 210 208 207 205 204 204 208 211 215 219 221 217 207 197 193 191 186 180 178 178 179 180 182 184 188 190 191 191 190 191 192 195 199 204 207 212 217 225 239 312 8
201 196 190 187 188 194 213 220 219 223 229 228 231 236 235 236 238 233 222 216 219 222 221 217 216 221 229 235 234 222 205 196 196 196 195 197 201 203 205 207 209 211 214 214 211 208 208 207 206 206 207 209 212 214 215 217 216 208 199 194 192 190 185 181 179 179 182 184 185 186 190 191 191 192 193 194 196 196 197 202 207 208 215 227 260 13 11
205 197 189 188 183 161 185 224 221 216 220 226 231 235 234 232 235 235 230 224 221 222 222 221 219 218 219 224 228 219 204 199 201 201 197 196 200 201 200 202 208 214 213 208 205 205 206 206 207 208 211 214 214 213 213 214 210 201 193 191 192 190 185 182 181 181 184 185 184 186 190 191 191 194 193 192 193 193 197 204 207 211 234 272 335 343 337
195 187 177 173 164 152 181 225 225 216 216 226 232 235 236 234 233 233 234 232 228 224 221 221 221 219 214 213 215 210 204 204 206 204 199 199 204 204 202 204 213 217 211 204 202 202 203 205 208 210 212 214 213 212 214 212 204 194 191 192 192 189 183 181 183 183 182 183 185 188 191 191 191 192 191 189 189 191 197 208 217 239 291 310 316 309 307
178 171 165 164 168 178 202 222 225 221 221 226 232 236 239 239 235 230 230 231 228 223 219 220 221 219 214 211 209 208 209 210 208 202 198 200 205 205 203 205 210 211 206 201 199 200 201 205 210 212 213 213 212 212 214 209 199 194 194 194 191 186 182 182 183 181 181 185 189 191 191 189 188 188 186 185 189 194 200 218 245 276 294 299 303 307 311
148 150 176 178 183 204 224 234 236 236 235 234 236 241 243 242 238 233 229 228 225 221 219 221 221 217 214 212 209 208 212 214 209 204 203 206 208 207 205 205 203 201 199 196 195 197 200 204 209 214 216 214 212 212 210 204 198 197 197 193 188 185 184 183 181 183 187 190 190 190 189 186 186 187 187 186 191 201 211 232 257 276 289 295 300 305 308
170 179 200 205 208 220 234 242 244 242 242 242 242 244 244 240 236 233 229 227 225 222 219 219 218 215 214 214 212 212 215 215 212 210 213 216 215 211 206 200 193 190 191 192 192 194 196 200 207 214 217 216 215 212 207 201 199 197 194 190 187 187 186 184 183 187 191 192 190 187 186 185 186 188 190 192 199 210 226 247 262 270 280 288 294 297 301
189 196 215 224 229 234 241 249 248 243 242 242 241 242 241 236 232 231 229 227 226 224 221 218 215 214 215 216 216 220 223 221 218 217 219 220 219 214 203 191 185 187 190 192 192 192 192 195 203 210 214 216 214 210 205 203 200 194 190 189 189 188 188 187 188 190 191 191 189 186 184 186 189 190 191 199 212 220 230 246 260 268 274 282 289 292 294
244 245 240 240 244 246 250 254 250 244 240 238 238 240 237 231 229 229 229 227 225 223 219 213 211 214 217 216 216 220 226 226 224 223 221 215 210 205 195 187 188 193 195 196 196 194 190 192 199 205 210 215 213 208 207 206 199 190 188 190 190 189 189 190 191 192 190 188 187 185 185 189 192 190 195 211 225 232 241 252 263 270 275 283 290 294 294
264 267 269 275 277 267 259 255 250 244 240 238 238 238 234 231 231 232 230 227 225 223 218 211 209 216 220 216 210 213 222 224 222 222 220 214 205 198 193 191 194 197 199 202 203 198 190 190 196 202 207 211 211 208 209 206 197 188 189 193 192 190 191 192 193 192 190 188 187 188 190 194 195 194 203 221 234 242 251 260 266 269 273 280 288 293 295
275 274 276 280 279 270 263 258 253 249 244 239 236 235 234 234 234 233 230 226 223 221 218 214 215 222 225 219 208 207 213 216 215 217 218 218 211 202 196 196 200 203 202 205 209 205 194 191 198 205 208 210 210 209 209 205 195 188 191 195 193 191 194 195 194 192 191 190 190 192 195 198 202 206 215 230 242 249 257 266 272 276 280 282 286 290 294
296 289 276 267 264 264 264 263 263 261 253 244 239 236 234 232 229 226 224 219 215 215 215 215 218 223 224 219 212 207 208 210 212 212 213 214 210 204 199 201 205 205 204 208 214 210 198 193 202 209 210 210 211 210 208 202 193 189 193 196 194 194 197 197 194 194 195 194 195 199 202 206 213 221 229 239 249 256 264 270 275 280 285 288 290 293 296
307 305 293 272 265 262 257 257 264 267 258 250 247 241 234 225 215 212 214 214 213 213 215 216 219 221 221 218 214 209 205 205 206 207 206 205 203 202 203 205 206 205 206 210 214 209 200 202 211 211 209 210 212 211 206 199 192 191 195 197 195 195 198 199 197 197 200 200 202 205 210 216 224 233 242 249 256 264 270 274 278 282 284 285 288 291 294
302 303 301 294 283 274 261 255 258 261 255 254 255 252 240 223 208 204 209 213 214 216 219 221 221 220 218 215 209 203 200 200 201 202 202 199 198 200 203 204 206 207 209 210 209 204 202 210 217 214 210 212 213 210 203 197 193 193 197 199 199 198 200 202 201 202 204 207 210 213 219 227 235 243 249 255 262 269 274 279 284 287 287 289 292 294 297
296 301 302 297 288 282 273 261 255 254 254 255 253 249 243 232 217 206 204 206 211 216 223 226 223 216 211 206 198 192 193 196 196 196 196 196 197 200 202 204 208 211 209 205 202 201 205 213 217 215 215 216 213 207 200 196 195 196 199 201 203 203 203 205 206 208 210 214 217 220 225 233 241 248 254 258 263 268 272 277 282 285 288 292 294 296 298
275 286 291 289 284 280 276 265 256 255 255 250 235 225 227 227 218 206 202 207 215 222 226 226 220 211 202 195 188 187 191 193 192 192 193 194 196 202 206 207 209 211 207 201 198 202 208 211 211 214 221 222 212 203 198 196 197 199 201 203 205 208 208 209 210 213 216 220 224 229 235 241 248 254 260 265 269 272 275 279 283 286 289 292 294 297 300
261 264 272 276 276 274 270 262 252 253 255 244 220 204 204 210 211 208 206 211 220 227 227 222 215 205 195 189 185 185 187 188 185 186 191 195 197 202 205 204 203 205 204 202 202 206 210 209 210 217 226 223 209 199 198 198 199 202 205 206 207 210 212 213 215 218 222 226 230 235 241 247 253 258 264 270 275 279 283 286 289 291 293 295 297 299 301
265 264 270 274 273 270 267 265 257 249 249 244 223 204 195 195 203 208 209 210 216 218 211 203 199 195 190 188 186 185 185 185 185 188 193 197 200 202 200 197 197 199 200 202 208 214 216 216 218 223 226 219 207 200 200 201 202 205 208 210 211 214 217 220 222 224 227 231 235 239 244 251 257 263 268 272 277 281 284 286 287 290 293 295 298 299 301
280 279 281 281 279 272 267 268 265 252 240 235 227 212 201 196 197 202 206 209 210 207 198 190 189 188 187 187 188 188 186 187 190 192 192 194 197 199 195 191 190 192 195 203 214 220 222 223 225 227 224 216 208 203 202 203 205 208 211 213 215 217 220 224 227 230 232 235 239 244 250 257 263 268 272 276 279 283 285 287 289 291 293 295 296 296 296
289 287 276 267 271 274 269 264 260 250 239 230 220 211 210 206 197 196 203 208 207 205 200 196 193 190 187 186 189 190 190 191 194 192 188 188 191 192 189 187 189 197 205 212 215 217 220 223 227 229 225 218 210 206 204 206 207 208 211 215 219 221 223 226 229 232 234 237 242 248 254 259 264 268 273 276 280 284 286 287 289 291 293 294 295 296 297
283 283 264 248 257 268 266 255 246 240 235 227 211 203 210 212 199 195 203 209 210 207 203 196 192 188 185 184 186 187 189 193 196 192 188 189 193 193 191 194 202 210 214 215 216 219 224 229 232 234 230 223 215 210 208 208 209 210 212 214 219 224 227 229 232 235 238 242 247 252 255 258 261 266 270 274 278 281 284 286 288 290 291 292 294 295 296
286 276 267 259 249 241 249 256 248 237 230 220 206 201 206 208 200 198 207 211 206 199 192 188 186 184 181 181 182 180 178 184 193 195 194 198 204 205 204 206 212 216 217 219 223 231 237 240 241 242 236 227 219 216 214 212 211 211 212 214 219 225 230 232 235 239 243 247 250 254 258 262 265 270 273 277 280 283 286 289 291 293 294 295 296 297 297
310 290 285 287 231 209 211 227 240 238 231 218 206 203 205 204 198 197 206 209 202 193 185 183 184 186 186 188 191 189 185 187 195 201 204 208 212 215 215 216 219 224 227 228 231 238 243 244 246 247 242 233 225 222 219 218 216 215 215 218 224 229 232 234 238 243 247 252 257 262 266 271 276 280 282 284 286 288 288 289 289 290 290 291 290 290 289
322 304 297 120 189 213 210 207 219 237 242 229 211 207 207 204 199 197 202 206 201 192 185 185 190 197 206 211 210 206 204 203 202 204 211 218 222 224 225 222 220 223 229 232 235 240 245 247 248 250 249 243 234 227 223 221 221 220 220 224 229 234 237 240 244 248 252 257 263 268 272 276 280 283 285 287 288 288 287 287 286 287 288 288 288 288 289
341 343 359 48 205 216 210 212 220 232 243 241 224 213 209 205 200 198 201 207 206 202 203 206 210 215 224 225 217 209 207 205 200 203 217 231 234 229 226 224 223 228 237 240 239 238 242 246 248 249 250 247 239 231 225 222 220 222 225 229 233 236 240 242 246 252 258 262 266 270 273 277 281 285 287 289 290 290 291 291 292 294 295 295 295 296 298